Vorticity
15 9 7 9 7 8 6 6 4 4 6 6 7 8 5 5 8 8 4 5 7 8 7 6 9 7 4 4 4 8 6 5 7 5 6 7 9 5 6 4 2 -0 0
7 12 10 7 6 6 4 4 5 4 10 16 15 11 10 11 9 10 7 5 6 8 9 8 6 11 6 4 2 3 6 4 2 2 3 5 4 -3 -2 4 4 4 1
8 9 13 8 7 5 4 6 4 10 7 10 12 13 13 14 14 12 11 12 13 16 14 11 12 8 7 5 5 5 6 6 5 4 4 5 3 2 3 3 6 5 3
11 10 8 8 7 5 10 6 9 6 8 6 7 9 12 12 11 14 18 14 16 18 13 9 7 7 6 9 10 7 6 7 8 8 8 6 10 6 5 3 2 1 5
14 14 10 7 7 12 10 9 9 11 6 8 9 10 10 9 11 10 8 11 10 4 6 6 6 6 5 5 4 4 4 5 6 5 5 5 4 3 2 3 6 7 3
7 8 6 9 14 9 8 7 10 8 8 11 13 10 8 8 8 2 4 6 4 2 2 3 6 4 4 4 3 1 3 4 5 -0 -2 4 5 2 -0 1 8 5 1
8 6 10 13 10 10 6 4 5 5 4 8 14 11 8 7 8 2 5 3 4 0 0 1 2 1 1 3 4 4 4 4 8 5 4 8 4 4 1 7 3 10 4
9 10 12 14 12 7 4 9 6 6 7 6 10 13 8 5 5 3 5 6 10 2 4 1 3 -0 2 3 3 4 3 6 2 1 -1 1 -0 2 5 1 4 5 -2
14 8 8 11 10 9 8 7 5 4 5 6 5 3 7 11 9 3 1 0 1 4 3 3 5 7 6 5 5 3 8 6 4 4 6 8 3 7 6 4 5 -0 5
21 7 9 8 3 3 4 5 6 4 5 -0 3 3 5 6 8 10 23 6 2 3 4 3 1 3 0 0 1 1 4 2 -1 -2 1 -2 7 2 2 6 10 4 7
19 16 5 6 2 0 3 4 6 4 3 6 2 -1 3 1 5 5 1 15 19 12 2 4 7 3 2 0 2 4 8 5 4 5 11 11 6 12 12 12 8 6 5
5 11 1 11 4 -0 15 -1 -0 5 6 3 -1 -1 -2 0 0 1 1 -3 4 6 3 2 6 7 5 3 2 1 5 4 8 6 4 5 9 5 9 10 14 9 7
7 1 12 11 24 -0 3 2 21 -8 -3 0 3 3 2 4 4 3 2 2 -1 5 9 3 3 2 4 6 9 9 6 3 2 3 5 7 7 11 9 13 9 11 11
9 3 -1 6 12 2 2 2 0 1 -8 33 -2 -1 -3 -3 -2 -10 1 2 -1 -1 8 5 4 8 9 7 6 6 5 3 3 8 4 7 9 6 14 7 13 20 17
14 7 6 6 5 6 5 5 6 9 4 1 4 5 5 6 -1 5 7 9 7 7 7 2 2 6 7 6 5 4 4 2 8 3 6 5 3 12 9 9 20 11 13
19 25 21 19 10 6 6 5 5 -1 3 4 3 -1 -3 7 15 18 12 6 6 5 5 6 6 4 2 5 4 4 2 7 5 5 5 3 5 12 12 14 17 8 0
10 9 10 14 17 17 21 23 18 20 23 21 20 16 12 10 12 12 13 14 15 13 11 10 6 5 5 5 3 4 7 4 3 3 2 2 16 6 12 15 13 13 8
3 6 7 10 8 9 12 12 12 11 11 13 12 11 11 10 9 8 6 7 8 7 6 5 5 5 5 5 6 5 6 3 3 3 3 6 14 7 9 10 8 9 17
1 6 4 8 10 11 12 8 7 8 7 7 8 7 6 7 8 8 7 6 5 6 7 7 6 6 7 6 4 5 3 4 3 3 7 12 15 4 11 15 4 6 13
9 11 2 7 10 10 7 6 6 8 8 8 8 8 8 7 6 5 5 4 5 6 5 6 7 6 3 4 7 5 2 3 4 8 7 20 17 6 19 25 14 17 16
14 0 5 -1 3 5 4 5 6 8 7 6 4 4 3 3 3 5 7 7 5 5 6 5 5 5 6 4 2 2 6 8 8 10 15 14 15 6 21 13 13 12 8
11 10 7 9 5 1 3 4 4 6 6 7 6 7 7 6 5 5 7 7 6 5 7 5 3 2 2 5 9 11 6 8 16 14 10 14 13 11 18 5 6 8 16
-2 10 14 9 13 14 10 8 8 7 9 9 9 9 8 7 6 6 7 8 6 3 1 2 10 12 11 8 5 6 14 17 11 4 19 8 10 11 6 5 10 12 14
17 16 17 16 11 7 4 2 3 3 2 2 2 2 2 1 2 2 3 3 4 6 7 12 2 4 12 14 18 9 5 7 11 7 22 5 8 7 8 8 14 12 12
-4 -7 -17 -6 -4 -1 4 3 4 6 7 10 10 10 8 5 4 5 10 11 10 11 12 7 2 -0 10 8 8 9 9 12 17 14 6 2 4 8 3 18 14 14 10
-17 -16 1 24 23 15 19 18 15 16 12 11 8 5 5 3 6 8 8 6 2 -1 8 4 7 11 12 10 7 8 18 13 17 -6 19 16 11 14 13 12 11 12 9
Height
5901 5904 5907 5912 5915 5920 5924 5927 5931 5933 5934 5935 5936 5937 5937 5938 5939 5940 5939 5940 5940 5941 5941 5942 5942 5943 5944 5944 5944 5943 5943 5943 5942 5940 5940 5939 5937 5936 5933 5930 5928 5925 5923
5898 5901 5905 5909 5913 5917 5921 5925 5928 5930 5931 5932 5933 5933 5934 5935 5936 5937 5938 5938 5938 5939 5939 5940 5940 5940 5941 5942 5943 5943 5943 5941 5941 5940 5938 5937 5936 5934 5932 5929 5926 5924 5920
5894 5898 5901 5907 5911 5915 5919 5922 5924 5927 5928 5929 5930 5931 5931 5932 5934 5935 5936 5936 5936 5937 5938 5938 5939 5938 5938 5938 5938 5938 5939 5939 5939 5938 5937 5936 5934 5931 5929 5926 5924 5921 5918
5890 5895 5900 5905 5909 5912 5916 5919 5922 5924 5925 5927 5927 5928 5930 5931 5932 5933 5934 5934 5935 5936 5936 5936 5937 5937 5937 5938 5938 5937 5936 5936 5935 5934 5933 5932 5931 5928 5926 5922 5920 5917 5914
5888 5892 5898 5902 5905 5909 5913 5916 5919 5921 5922 5923 5925 5926 5928 5930 5931 5932 5933 5934 5934 5935 5935 5935 5936 5936 5935 5935 5936 5935 5934 5934 5933 5932 5932 5930 5928 5925 5922 5920 5917 5915 5912
5884 5889 5894 5898 5902 5907 5910 5914 5917 5918 5920 5922 5923 5924 5926 5928 5930 5931 5932 5933 5933 5934 5934 5934 5934 5934 5934 5933 5933 5932 5932 5932 5931 5929 5928 5927 5925 5922 5917 5914 5912 5908 5907
5880 5884 5890 5895 5899 5904 5907 5911 5914 5916 5918 5919 5921 5922 5924 5926 5928 5929 5930 5932 5932 5933 5934 5934 5933 5932 5931 5930 5928 5928 5928 5928 5927 5924 5923 5922 5921 5917 5913 5909 5904 5902 5901
5876 5881 5886 5891 5896 5900 5904 5908 5911 5914 5916 5917 5919 5920 5922 5923 5925 5926 5927 5929 5931 5931 5932 5932 5931 5930 5929 5928 5927 5926 5925 5924 5921 5916 5914 5915 5913 5910 5906 5901 5897 5892 5893
5874 5879 5884 5889 5893 5897 5902 5905 5907 5910 5913 5915 5916 5917 5919 5920 5922 5922 5923 5925 5927 5928 5929 5929 5928 5927 5926 5924 5923 5921 5920 5920 5915 5911 5908 5905 5904 5903 5898 5891 5889 5881 5881
5873 5877 5881 5885 5889 5894 5897 5900 5902 5905 5908 5910 5912 5914 5916 5917 5918 5918 5919 5921 5923 5924 5924 5924 5923 5922 5920 5919 5917 5916 5915 5913 5909 5908 5904 5900 5896 5894 5890 5883 5879 5871 5867
5868 5871 5876 5879 5884 5888 5890 5894 5898 5900 5902 5905 5907 5909 5911 5912 5913 5913 5914 5915 5916 5917 5918 5918 5917 5916 5914 5913 5911 5909 5908 5905 5902 5899 5898 5896 5894 5890 5883 5875 5868 5860 5854
5862 5866 5871 5876 5879 5882 5882 5887 5892 5895 5898 5900 5902 5904 5905 5906 5907 5907 5908 5909 5909 5910 5911 5911 5910 5908 5907 5905 5904 5902 5900 5897 5894 5890 5887 5886 5881 5877 5874 5870 5861 5852 5845
5856 5861 5866 5869 5873 5877 5880 5882 5883 5885 5889 5892 5894 5896 5897 5897 5899 5900 5901 5901 5901 5902 5902 5902 5901 5900 5899 5898 5896 5894 5892 5888 5884 5880 5876 5873 5869 5863 5856 5853 5848 5841 5833
5848 5852 5856 5860 5864 5867 5870 5872 5874 5877 5879 5881 5884 5887 5887 5889 5890 5890 5891 5892 5891 5892 5892 5891 5891 5890 5889 5889 5887 5885 5882 5878 5873 5868 5864 5862 5856 5850 5844 5836 5828 5824 5816
5840 5844 5847 5851 5855 5858 5860 5863 5865 5867 5869 5871 5874 5875 5877 5878 5879 5879 5880 5881 5881 5881 5881 5881 5880 5880 5879 5878 5876 5873 5870 5866 5862 5857 5853 5848 5842 5836 5829 5823 5814 5808 5802
5830 5834 5839 5843 5845 5847 5850 5852 5854 5858 5860 5862 5864 5865 5868 5869 5869 5869 5869 5870 5870 5869 5870 5869 5869 5869 5868 5866 5864 5861 5858 5854 5851 5847 5842 5835 5829 5823 5816 5809 5801 5793 5787
5822 5826 5829 5831 5834 5837 5840 5843 5845 5848 5850 5851 5853 5854 5856 5858 5858 5858 5859 5859 5859 5859 5860 5859 5859 5857 5856 5854 5852 5849 5846 5842 5839 5834 5828 5822 5816 5809 5802 5794 5787 5779 5773
5814 5817 5821 5823 5825 5827 5829 5831 5833 5835 5837 5839 5841 5843 5844 5846 5847 5848 5849 5849 5849 5849 5848 5847 5846 5845 5843 5841 5839 5836 5833 5830 5825 5820 5814 5808 5801 5795 5788 5782 5775 5767 5760
5804 5807 5810 5814 5815 5818 5819 5822 5823 5826 5828 5829 5831 5832 5833 5834 5835 5836 5837 5837 5837 5837 5836 5835 5833 5832 5830 5827 5825 5822 5819 5815 5811 5806 5800 5795 5789 5783 5776 5769 5761 5754 5748
5793 5797 5799 5802 5804 5807 5809 5811 5813 5814 5816 5817 5818 5820 5821 5822 5822 5823 5824 5824 5824 5823 5822 5821 5819 5817 5815 5813 5810 5807 5803 5799 5795 5790 5786 5782 5775 5767 5762 5756 5750 5742 5735
5780 5785 5788 5791 5794 5796 5797 5799 5801 5803 5804 5805 5806 5807 5808 5809 5810 5810 5810 5810 5809 5809 5808 5806 5805 5803 5800 5797 5794 5791 5787 5784 5781 5777 5772 5766 5760 5754 5749 5743 5738 5730 5724
5767 5771 5775 5778 5781 5784 5785 5787 5788 5789 5791 5792 5793 5794 5795 5795 5796 5796 5796 5795 5794 5793 5792 5790 5788 5786 5784 5781 5778 5776 5773 5769 5765 5761 5756 5752 5747 5743 5737 5731 5726 5721 5715
5755 5758 5761 5764 5767 5769 5771 5773 5774 5775 5776 5777 5777 5778 5779 5779 5779 5779 5778 5778 5777 5776 5775 5774 5772 5770 5768 5765 5762 5760 5757 5753 5748 5744 5741 5738 5734 5730 5726 5720 5716 5711 5707
5742 5747 5750 5752 5753 5754 5756 5757 5758 5759 5760 5761 5761 5761 5762 5762 5762 5762 5761 5761 5761 5760 5759 5757 5756 5754 5751 5747 5744 5741 5739 5736 5732 5728 5725 5722 5719 5716 5713 5709 5706 5701 5697
5729 5733 5735 5737 5739 5740 5740 5739 5740 5742 5743 5743 5743 5744 5744 5744 5744 5744 5744 5743 5742 5741 5740 5739 5737 5735 5732 5730 5727 5723 5721 5719 5717 5714 5711 5707 5704 5701 5697 5695 5693 5690 5688
5712 5715 5719 5722 5723 5722 5722 5721 5721 5722 5723 5724 5725 5726 5726 5726 5726 5725 5724 5723 5723 5722 5721 5720 5718 5715 5712 5710 5708 5706 5704 5703 5700 5698 5695 5692 5689 5686 5683 5679 5679 5677 5675